GFSFLT2_700_spd_261.txt.gz
Wind_Speed
33 30 29 29 28 25 24 24 29 30 32 33 33 33 34 34 34 33 31 31 30 30 32 34 33 33 33
28 31 31 28 26 28 26 28 30 30 33 34 34 35 35 34 32 32 31 29 28 29 32 36 36 35 34
42 34 33 33 33 29 28 30 30 32 33 32 32 35 34 33 34 34 32 32 32 32 31 33 35 39 38
35 36 34 38 31 32 33 33 33 32 32 36 37 36 34 38 38 38 34 35 36 37 37 37 37 39 37
45 38 41 40 39 32 33 34 36 38 39 37 38 41 41 40 42 42 42 42 43 43 42 43 38 38 40
40 38 35 33 31 31 33 35 37 38 41 37 37 40 41 41 39 37 40 42 43 42 41 43 44 43 39
38 38 35 30 30 32 34 39 41 41 39 41 41 42 39 37 40 42 42 42 43 44 44 46 46 45 41
38 33 29 28 32 32 37 41 39 40 41 44 41 41 38 41 40 44 45 46 45 42 44 43 40 42 43
38 38 34 34 35 41 44 41 39 38 37 41 40 41 42 39 40 43 48 47 48 43 42 41 43 42 45
38 36 36 35 38 39 38 38 36 38 35 37 38 39 42 41 36 37 39 39 37 43 46 42 41 41 44
30 32 34 34 37 36 33 33 35 36 35 35 36 36 38 40 40 38 36 38 41 42 39 42 41 42 41
32 33 31 33 31 34 34 33 36 36 36 34 36 35 35 37 37 33 32 35 33 30 31 32 34 39 37
31 35 36 38 35 34 35 36 36 37 35 35 34 33 34 35 34 31 33 31 31 30 28 28 30 30 30
33 33 34 34 34 35 32 30 32 32 33 32 31 30 29 31 34 35 36 38 34 33 30 27 26 23 23
33 33 32 34 35 33 32 31 30 32 31 30 28 29 31 31 33 33 31 30 29 28 24 23 24 26 28
35 35 33 32 32 32 29 27 31 29 29 28 28 27 28 29 27 25 23 23 24 24 23 23 24 29 33
27 29 28 27 27 27 27 26 26 27 27 29 33 34 34 31 29 27 26 24 23 24 25 27 30 34 34

GFSFLT2_700_spd_267.txt.gz
Wind_Speed
41 37 38 36 31 32 29 35 32 29 30 24 19 28 35 37 35 28 29 32 33 33 33 33 31 33 31
42 40 40 38 37 38 34 34 28 27 30 34 30 30 30 29 29 31 30 32 32 33 34 37 36 34 34
45 39 42 40 37 34 33 31 28 28 28 32 32 30 30 30 30 30 30 29 31 33 35 33 34 37 37
47 40 40 39 43 39 33 31 30 26 27 28 32 30 29 29 30 30 29 31 34 36 35 34 38 37 40
50 48 46 43 42 38 41 35 35 38 35 33 35 35 32 33 33 33 33 35 36 36 39 41 40 41 42
51 49 46 44 41 41 38 41 42 38 35 36 36 38 36 35 34 35 36 37 38 38 39 42 44 46 47
53 53 47 46 44 44 45 45 38 35 34 39 42 42 38 37 38 39 40 41 42 44 47 48 46 46 45
54 52 46 44 44 39 40 40 38 42 41 44 42 39 39 40 40 42 43 45 47 47 47 48 48 47 51
51 50 48 46 43 42 45 39 43 43 43 40 38 37 40 40 41 41 43 45 45 44 45 47 49 50 50
49 49 47 43 45 44 42 46 46 43 39 39 37 38 42 42 42 41 38 38 40 42 45 46 46 44 45
47 48 45 49 45 41 44 41 41 42 40 39 40 41 45 45 43 37 37 38 39 39 38 39 38 39 41
51 49 51 46 48 46 42 42 42 42 41 40 43 42 42 41 39 34 35 35 36 36 34 35 35 36 37
49 54 52 55 44 42 43 43 42 41 39 39 38 37 35 36 37 34 36 33 31 30 31 33 34 34 34
56 51 52 45 46 42 43 41 39 36 35 33 33 36 34 35 32 35 34 32 29 28 30 29 28 28 30
55 51 49 46 44 43 40 39 39 34 31 34 35 34 34 32 33 34 34 29 28 29 29 28 28 30 30
57 54 54 50 45 39 37 36 34 36 33 34 36 34 33 32 32 34 31 30 30 31 32 32 30 30 30
51 51 40 35 38 39 36 34 35 34 34 33 33 33 33 32 33 31 31 29 30 32 33 33 30 30 29

GFSFLT2_700_spd_270.txt.gz
Wind_Speed
40 36 36 34 31 32 31 31 27 26 25 25 24 23 24 26 31 32 33 32 33 32 28 29 30 31 34
43 41 38 37 34 36 32 29 28 28 25 26 27 25 25 26 25 29 31 30 31 32 34 31 31 30 31
47 41 37 38 38 39 36 34 33 32 32 27 27 29 31 30 30 30 27 28 29 31 32 31 31 33 35
46 42 40 36 38 39 40 34 31 31 30 26 27 30 31 32 30 28 29 30 31 33 33 32 35 35 36
51 50 48 44 43 35 35 35 35 32 30 29 28 26 25 29 31 31 32 34 34 35 35 36 37 36 35
62 55 47 46 41 40 34 35 37 36 38 38 34 31 30 32 34 35 36 36 37 37 37 38 38 38 39
54 51 45 43 42 42 41 38 37 35 35 35 37 34 36 37 37 40 41 42 39 37 38 41 42 43 44
54 50 49 45 41 37 36 37 41 40 39 41 37 36 35 37 40 41 42 39 38 39 40 42 43 45 46
49 51 52 53 51 46 46 45 47 47 45 42 40 40 37 40 42 39 37 39 39 41 43 44 44 43 42
48 50 51 53 54 50 48 48 48 45 42 40 40 42 43 42 38 37 38 39 41 43 43 44 44 42 40
47 47 50 51 51 49 50 50 48 46 42 42 44 41 42 39 37 37 39 42 45 44 43 41 39 39 40
50 50 52 50 50 49 48 47 43 43 44 39 43 41 40 40 40 39 40 44 42 40 35 35 35 34 35
55 53 47 52 52 48 47 45 44 47 42 44 40 39 39 40 40 41 40 38 38 36 30 30 29 30 31
57 55 52 51 46 52 47 47 44 48 47 42 40 39 39 39 39 39 36 38 34 33 29 28 28 30 31
55 53 54 53 50 52 51 48 49 51 46 42 41 40 38 38 37 39 37 33 32 30 30 29 30 33 34
58 57 55 56 54 53 47 48 53 47 43 41 37 37 37 37 37 34 33 31 30 30 31 30 30 32 34
64 58 53 53 52 65 46 52 52 45 42 39 37 36 38 34 33 33 31 30 32 32 30 27 27 30 31

GFSFLT2_700_spd_273.txt.gz
Wind_Speed
50 37 38 37 35 33 32 33 29 28 25 24 22 23 24 25 26 28 27 26 25 25 28 31 30 26 30
50 46 42 40 37 34 31 31 28 27 27 25 26 26 24 25 24 23 25 24 23 24 27 29 28 28 29
43 44 48 46 38 37 36 36 31 30 31 29 28 25 26 28 26 24 23 23 25 26 24 25 27 28 30
50 46 46 48 45 43 42 40 37 36 36 33 29 28 29 27 25 27 29 27 26 26 26 26 29 30 33
52 54 54 50 52 47 42 40 39 39 35 32 32 29 26 25 25 24 30 29 30 30 29 30 31 34 35
50 55 56 53 49 46 41 42 44 38 38 35 33 28 27 26 23 26 28 32 33 33 33 33 35 36 37
48 47 55 53 48 45 41 38 36 30 33 33 34 34 33 30 31 30 31 33 35 35 36 38 38 37 39
52 58 47 49 46 46 41 39 38 37 37 37 34 33 32 33 35 34 36 37 38 36 38 40 40 40 41
56 56 51 53 46 52 49 45 45 45 44 41 37 34 35 37 38 35 35 37 38 42 43 41 40 40 41
59 58 53 50 49 50 49 50 48 45 45 43 39 38 39 39 40 37 41 37 41 43 42 40 41 41 41
62 62 60 57 54 49 50 52 50 49 45 42 40 38 40 42 40 40 40 40 40 39 39 41 41 42 40
56 56 70 66 61 55 54 54 54 50 48 41 43 40 38 40 39 39 43 41 40 39 41 42 44 40 37
60 57 61 62 61 51 54 50 51 50 50 47 46 43 38 43 42 40 40 38 40 39 40 43 42 34 34
48 54 54 50 50 49 48 50 47 47 48 47 44 39 42 41 40 42 36 39 39 40 42 43 40 32 31
53 55 67 55 54 47 47 47 45 46 43 46 41 44 43 41 44 42 40 40 39 41 41 39 34 31 31
51 51 56 64 55 50 45 45 45 46 44 45 46 50 42 46 43 42 41 40 39 40 38 34 33 31 30
61 53 59 60 58 53 53 48 45 46 49 47 48 42 48 42 42 42 39 38 39 38 34 33 32 29 27

GFSFLT2_700_spd_276.txt.gz
Wind_Speed
62 46 43 45 44 44 42 40 37 35 33 32 30 30 28 26 25 24 23 23 26 24 20 18 17 17 19
61 54 48 49 45 45 43 43 42 38 36 34 31 30 28 26 24 24 25 25 25 25 23 20 20 19 21
57 59 51 51 50 45 44 42 41 38 36 34 33 33 30 28 27 25 24 25 25 23 22 23 22 22 22
56 59 57 58 61 50 50 47 44 40 38 35 34 33 31 31 29 24 25 26 25 24 23 24 25 25 24
64 64 62 61 61 60 57 47 46 45 42 42 38 37 33 32 29 29 28 28 27 28 27 27 27 27 27
45 65 58 57 64 63 54 51 51 48 45 42 39 39 35 34 29 28 28 28 30 29 30 28 28 29 30
44 54 55 55 54 55 60 57 56 48 49 45 44 40 36 31 29 29 31 31 31 29 28 28 29 31 32
60 50 54 50 56 56 54 53 53 49 48 48 47 41 38 34 32 33 32 33 32 33 29 29 30 34 32
56 67 62 55 60 51 59 60 57 54 52 51 47 43 40 39 37 37 37 38 36 33 35 33 36 35 35
65 54 65 64 65 60 58 61 59 55 54 53 47 45 44 42 40 41 40 39 38 34 31 36 34 34 38
74 72 64 58 59 53 53 56 62 56 56 54 49 45 45 44 42 42 40 41 39 37 37 38 38 37 40
81 72 75 75 51 61 69 58 57 55 50 54 50 47 47 47 44 44 41 41 40 37 40 39 39 38 39
78 84 64 69 81 58 60 60 60 57 51 54 51 47 45 45 41 39 39 41 38 38 44 41 43 42 41
78 89 83 61 51 59 59 53 51 49 47 53 53 51 47 46 43 41 41 39 41 39 42 40 41 42 41
65 71 83 70 41 59 60 54 56 54 52 55 54 55 49 46 43 46 43 42 42 40 40 42 41 42 44
57 66 72 72 52 66 62 60 65 60 54 54 50 51 44 47 50 42 37 37 38 45 44 40 41 44 44
54 64 70 76 73 66 50 59 64 63 57 54 47 47 48 51 51 45 38 35 43 43 43 42 43 44 45